Afton, Prince Edward Island

3:29 AM ADT on September 26, 2017 (GMT -0300)
Afton

Weather History for 71706 - March, 2013

Change the Weather History Date:

Sunday, March 10, 2013

  Actual Average Record
Temperature  
Mean Temperature 30 °F -  
Max Temperature 36 °F 36 °F - ()
Min Temperature 24 °F 22 °F - ()
Degree Days  
Heating Degree Days 35    
Moisture  
Dew Point 25 °F    
Average Humidity 79    
Maximum Humidity 93    
Minimum Humidity 55    
Precipitation  
Precipitation 0.00 in 0.12 in - ()
Sea Level Pressure  
Sea Level Pressure 30.41 in    
Wind  
Wind Speed 5 mph ()    
Max Wind Speed 10 mph    
Max Gust Speed -    
Visibility 15.0 miles    
Events      
T = Trace of Precipitation, MM = Missing Value Source: Averaged Metar Reports

Daily Weather History Graph

Daily Weather History Graph

Search for Another Location

Airport or City:

Trip Planner

Search our weather history database for the weather conditions in past years. The results will help you decide how hot, cold, wet, or windy it might be!

Date:

Astronomy

Mar. 10, 2013 Rise Set
Actual Time 7:34 AM ADT 7:11 PM ADT
Civil Twilight 7:04 AM ADT 7:41 PM ADT
Nautical Twilight 6:29 AM ADT 8:16 PM ADT
Astronomical Twilight 5:54 AM ADT 8:51 PM ADT
Moon 6:34 AM ADT (3/10) 6:13 PM ADT (3/10)
Length of Visible Light 12h 37m
Length of Day
11h 37m
Waning Crescent, 2% of the Moon is Illuminated
Mar 10
Waning Crescent
Mar 11
New
Mar 19
First Quarter
Mar 27
Full
Apr 3
Last Quarter

Hourly Weather History & Observations

Time (ADT) Temp. Windchill Dew Point Humidity Pressure Visibility Wind Dir Wind Speed Gust Speed Precip Events Conditions
12:00 AM 28.4 °F 20.4 °F 26.6 °F 93% 30.40 in 15.0 mi NE 8.1 mph - N/A   Overcast
1:00 AM 28.4 °F 21.2 °F 26.6 °F 93% 30.42 in 15.0 mi NE 6.9 mph - N/A   Overcast
3:00 AM 29 °F - 24 °F 76% 30.42 in 15 mi ENE 6.9 mph - -   Overcast
4:00 AM 28.4 °F 22.2 °F 24.8 °F 86% 30.42 in 15.0 mi ENE 5.8 mph - N/A   Overcast
5:00 AM 28.4 °F 21.2 °F 24.8 °F 86% 30.41 in 15.0 mi ENE 6.9 mph - N/A   Overcast
6:00 AM 28.4 °F 19.1 °F 24.8 °F 86% 30.40 in 15.0 mi East 10.4 mph - N/A   Overcast
7:00 AM 28.4 °F 19.1 °F 23.0 °F 80% 30.42 in 15.0 mi NE 10.4 mph - N/A   Overcast
8:00 AM 28.4 °F 21.2 °F 24.8 °F 86% 30.43 in 15.0 mi NE 6.9 mph - N/A   Overcast
9:00 AM 29 °F - 24 °F 75% 30.43 in 15 mi ENE 6.9 mph - -   Overcast
9:00 AM 28.4 °F 19.1 °F 24.8 °F 86% 30.43 in 15.0 mi East 10.4 mph - N/A   Overcast
10:00 AM 30.2 °F 24.3 °F 24.8 °F 80% 30.44 in 15.0 mi East 5.8 mph - N/A   Overcast
11:00 AM 30.2 °F 24.3 °F 24.8 °F 80% 30.45 in 15.0 mi ENE 5.8 mph - N/A   Overcast
12:00 PM 32.0 °F 27.5 °F 24.8 °F 75% 30.45 in 15.0 mi East 4.6 mph - N/A   Overcast
1:00 PM 32.0 °F - 24.8 °F 75% 30.43 in 15.0 mi East 2.3 mph - N/A   Overcast
2:00 PM 33.8 °F 26.4 °F 24.8 °F 70% 30.40 in 15.0 mi SE 9.2 mph - N/A   Mostly Cloudy
3:00 PM 34 °F - 24 °F 55% 30.41 in 15 mi Calm Calm - -   Mostly Cloudy
3:00 PM 33.8 °F - 23.0 °F 65% 30.41 in 15.0 mi Calm Calm - N/A   Mostly Cloudy
3:40 PM 35.6 °F 31.7 °F 24.8 °F 65% 30.39 in 15.0 mi ESE 4.6 mph - N/A   Scattered Clouds
4:00 PM 35.6 °F - 24.8 °F 65% 30.40 in 15.0 mi Calm Calm - N/A   Scattered Clouds
4:17 PM 35.6 °F 32.8 °F 24.8 °F 65% 30.40 in 15.0 mi SW 3.5 mph - N/A   Scattered Clouds
4:29 PM 35.6 °F 30.7 °F 26.6 °F 70% 30.40 in 15.0 mi Variable 5.8 mph - N/A   Scattered Clouds
5:00 PM 33.8 °F 27.7 °F 26.6 °F 75% 30.39 in 15.0 mi NE 6.9 mph - N/A   Scattered Clouds
6:00 PM 33.8 °F 29.6 °F 24.8 °F 70% 30.39 in 15.0 mi East 4.6 mph - N/A   Mostly Cloudy
7:00 PM 30.2 °F - 24.8 °F 80% 30.39 in 15.0 mi Calm Calm - N/A   Mostly Cloudy
8:00 PM 28.4 °F - 24.8 °F 86% 30.39 in 15.0 mi Calm Calm - N/A   Scattered Clouds
9:00 PM 27 °F - 24 °F 85% 30.39 in 15 mi Calm Calm - -   Scattered Clouds
9:00 PM 26.6 °F - 24.8 °F 93% 30.39 in 15.0 mi Calm Calm - N/A   Partly Cloudy
10:00 PM 24.8 °F 20.5 °F 23.0 °F 93% 30.38 in 15.0 mi SE 3.5 mph - N/A   Partly Cloudy
11:00 PM 26.6 °F 18.2 °F 23.0 °F 86% 30.36 in 15.0 mi SE 8.1 mph - N/A   Partly Cloudy
12:00 AM 24.8 °F 15.3 °F 23.0 °F 93% 30.33 in 15.0 mi SSE 9.2 mph - N/A   Partly Cloudy